West Bend, WI

5:31 AM CDT on August 19, 2017 (GMT -0500)
West Bend Municipal

Weather History for KETB - November, 2012

Change the Weather History Date:

Wednesday, November 21, 2012

  Actual Average Record
Temperature  
Mean Temperature 45 °F -  
Max Temperature 60 °F 40 °F 62 °F (1990)
Min Temperature 30 °F 25 °F 3 °F (2014)
Degree Days  
Heating Degree Days 20    
Moisture  
Dew Point 36 °F    
Average Humidity 74    
Maximum Humidity 100    
Minimum Humidity 36    
Precipitation  
Precipitation 0.00 in - - ()
Sea Level Pressure  
Sea Level Pressure 30.10 in    
Wind  
Wind Speed 4 mph (SSW)    
Max Wind Speed 13 mph    
Max Gust Speed 20 mph    
Visibility 6 miles    
Events Fog , Snow    
Averages and records for this station are not official NWS values.
T = Trace of Precipitation, MM = Missing Value Source: NWS Daily Summary

Daily Weather History Graph

Daily Weather History Graph

Search for Another Location

Airport or City:

Trip Planner

Search our weather history database for the weather conditions in past years. The results will help you decide how hot, cold, wet, or windy it might be!

Date:

Astronomy

Nov. 21, 2012 Rise Set
Actual Time 6:54 AM CST 4:22 PM CST
Civil Twilight 6:22 AM CST 4:53 PM CST
Nautical Twilight 5:47 AM CST 5:28 PM CST
Astronomical Twilight 5:13 AM CST 6:02 PM CST
Moon 12:48 PM CST (11/21) 12:02 AM CST (11/21)
Length of Visible Light 10h 30m
Length of Day
9h 28m
First Quarter, 62% of the Moon is Illuminated
Nov 21
First Quarter
Nov 28
Full
Dec 6
Last Quarter
Dec 13
New
Dec 19
First Quarter

Hourly Weather History & Observations

Time (CST) Temp. Windchill Dew Point Humidity Pressure Visibility Wind Dir Wind Speed Gust Speed Precip Events Conditions
12:15 AM 32.0 °F - 32.0 °F 100% 30.15 in 2.5 mi Calm Calm - N/A   Clear
12:35 AM 32.0 °F - 32.0 °F 100% 30.15 in 4.0 mi Calm Calm - N/A   Clear
12:55 AM 32.0 °F - 32.0 °F 100% 30.15 in 1.8 mi Calm Calm - N/A   Mist
1:15 AM 32.0 °F - 32.0 °F 100% 30.16 in 4.0 mi Calm Calm - N/A   Clear
1:35 AM 32.0 °F - 32.0 °F 100% 30.16 in 2.5 mi Calm Calm - N/A   Clear
1:55 AM 32.0 °F - 32.0 °F 100% 30.16 in 2.0 mi Calm Calm - N/A   Clear
2:15 AM 32.0 °F - 32.0 °F 100% 30.16 in 1.0 mi Calm Calm - N/A   Mist
2:35 AM 32.0 °F - 32.0 °F 100% 30.16 in 4.0 mi Calm Calm - N/A   Scattered Clouds
2:55 AM 32.0 °F - 32.0 °F 100% 30.16 in 2.0 mi Calm Calm - N/A   Mostly Cloudy
3:15 AM 32.0 °F - 32.0 °F 100% 30.15 in 0.2 mi Calm Calm - N/A Fog Fog
3:35 AM 32.0 °F - 32.0 °F 100% 30.16 in 0.2 mi Calm Calm - N/A Fog Fog
3:55 AM 32.0 °F - 32.0 °F 100% 30.16 in 0.2 mi Calm Calm - N/A Snow Light Snow
4:15 AM 32.0 °F - 32.0 °F 100% 30.16 in 0.2 mi Calm Calm - N/A Fog Fog
4:35 AM 32.0 °F - 32.0 °F 100% 30.15 in 0.2 mi Calm Calm - N/A Fog Fog
4:55 AM 32.0 °F - 32.0 °F 100% 30.15 in 0.2 mi Calm Calm - N/A Fog Fog
5:15 AM 32.0 °F - 32.0 °F 100% 30.16 in 0.2 mi Calm Calm - N/A Fog Fog
5:35 AM 32.0 °F - 32.0 °F 100% 30.17 in 0.2 mi Calm Calm - N/A Fog Fog
5:55 AM 32.0 °F - 32.0 °F 100% 30.17 in 0.2 mi Calm Calm - N/A Fog Fog
6:15 AM 32.0 °F - 32.0 °F 100% 30.17 in 0.2 mi Calm Calm - N/A Fog Fog
6:35 AM 32.0 °F 28.7 °F 32.0 °F 100% 30.17 in 1.0 mi WSW 3.5 mph - N/A   Overcast
6:55 AM 30.2 °F - 30.2 °F 100% 30.16 in 0.2 mi Calm Calm - N/A Fog Light Freezing Fog
7:15 AM 32.0 °F - 32.0 °F 100% 30.17 in 0.2 mi Calm Calm - N/A Fog Light Freezing Fog
7:35 AM 32.0 °F - 32.0 °F 100% 30.17 in 0.2 mi Calm Calm - N/A Fog Fog
7:55 AM 32.0 °F - 32.0 °F 100% 30.17 in 0.2 mi Calm Calm - N/A Fog Fog
8:15 AM 32.0 °F - 32.0 °F 100% 30.17 in 0.2 mi Calm Calm - N/A Fog Fog
8:55 AM 41.0 °F - 41.0 °F 100% 30.17 in 2.0 mi Calm Calm - N/A   Mostly Cloudy
9:15 AM 42.8 °F - 42.8 °F 100% 30.17 in 5.0 mi Calm Calm - N/A   Clear
9:35 AM 44.6 °F - 44.6 °F 100% 30.17 in 7.0 mi Calm Calm - N/A   Clear
9:55 AM 46.4 °F 45.2 °F 46.4 °F 100% 30.16 in 10.0 mi SSW 3.5 mph - N/A   Clear
10:15 AM 53.6 °F - 42.8 °F 67% 30.16 in 10.0 mi SW 11.5 mph 16.1 mph N/A   Clear
10:35 AM 53.6 °F - 41.0 °F 62% 30.15 in 10.0 mi SSW 8.1 mph - N/A   Clear
10:55 AM 55.4 °F - 41.0 °F 58% 30.14 in 10.0 mi SSW 11.5 mph - N/A   Clear
11:15 AM 55.4 °F - 41.0 °F 58% 30.13 in 10.0 mi SSW 9.2 mph - N/A   Clear
11:55 AM 55.4 °F - 37.4 °F 51% 30.10 in 10.0 mi SSW 8.1 mph - N/A   Clear
12:15 PM 57.2 °F - 35.6 °F 44% 30.10 in 10.0 mi SSW 10.4 mph - N/A   Clear
12:35 PM 57.2 °F - 37.4 °F 48% 30.10 in 10.0 mi SSW 10.4 mph - N/A   Clear
12:55 PM 59.0 °F - 35.6 °F 42% 30.10 in 10.0 mi SSW 10.4 mph - N/A   Clear
1:15 PM 59.0 °F - 35.6 °F 42% 30.08 in 10.0 mi SSW 12.7 mph - N/A   Clear
1:35 PM 59.0 °F - 35.6 °F 42% 30.07 in 10.0 mi South 10.4 mph 16.1 mph N/A   Clear
1:55 PM 60.8 °F - 35.6 °F 39% 30.06 in 10.0 mi SSW 10.4 mph - N/A   Clear
2:15 PM 59.0 °F - 33.8 °F 39% 30.06 in 10.0 mi SSW 10.4 mph - N/A   Clear
2:35 PM 59.0 °F - 33.8 °F 39% 30.05 in 10.0 mi SSW 9.2 mph 16.1 mph N/A   Clear
2:55 PM 59.0 °F - 32.0 °F 36% 30.04 in 10.0 mi SSW 12.7 mph 18.4 mph N/A   Clear
3:15 PM 59.0 °F - 33.8 °F 39% 30.04 in 10.0 mi South 9.2 mph - N/A   Clear
3:35 PM 59.0 °F - 35.6 °F 42% 30.04 in 10.0 mi South 6.9 mph - N/A   Clear
3:55 PM 57.2 °F - 35.6 °F 44% 30.04 in 10.0 mi South 8.1 mph 16.1 mph N/A   Clear
4:15 PM 55.4 °F - 35.6 °F 47% 30.03 in 10.0 mi SSW 10.4 mph - N/A   Clear
4:35 PM 53.6 °F - 37.4 °F 54% 30.03 in 10.0 mi South 8.1 mph - N/A   Clear
4:55 PM 53.6 °F - 37.4 °F 54% 30.03 in 10.0 mi South 8.1 mph - N/A   Clear
5:15 PM 51.8 °F - 37.4 °F 58% 30.03 in 10.0 mi South 8.1 mph - N/A   Clear
5:35 PM 51.8 °F - 37.4 °F 58% 30.03 in 10.0 mi South 8.1 mph - N/A   Clear
5:55 PM 51.8 °F - 39.2 °F 62% 30.03 in 10.0 mi SSW 8.1 mph - N/A   Clear
6:15 PM 51.8 °F - 39.2 °F 62% 30.03 in 10.0 mi South 6.9 mph - N/A   Clear
6:55 PM 50.0 °F - 41.0 °F 71% 30.02 in 10.0 mi South 9.2 mph - N/A   Clear
7:15 PM 50.0 °F - 41.0 °F 71% 30.03 in 10.0 mi SSW 6.9 mph - N/A   Clear
7:35 PM 50.0 °F - 41.0 °F 71% 30.03 in 10.0 mi SSW 9.2 mph - N/A   Clear
7:55 PM 50.0 °F - 41.0 °F 71% 30.03 in 10.0 mi SSW 9.2 mph - N/A   Clear
8:15 PM 50.0 °F - 39.2 °F 66% 30.02 in 10.0 mi SSW 9.2 mph - N/A   Clear
8:35 PM 50.0 °F - 39.2 °F 66% 30.02 in 10.0 mi SSW 9.2 mph - N/A   Clear
8:55 PM 50.0 °F - 37.4 °F 62% 30.02 in 10.0 mi SSW 12.7 mph - N/A   Clear
9:15 PM 51.8 °F - 37.4 °F 58% 30.02 in 10.0 mi SSW 10.4 mph 18.4 mph N/A   Clear
9:35 PM 51.8 °F - 39.2 °F 62% 30.01 in 10.0 mi SSW 10.4 mph - N/A   Clear
9:55 PM 51.8 °F - 39.2 °F 62% 30.00 in 10.0 mi SSW 11.5 mph 19.6 mph N/A   Clear
10:15 PM 51.8 °F - 39.2 °F 62% 30.00 in 10.0 mi SSW 12.7 mph 19.6 mph N/A   Clear
10:35 PM 50.0 °F - 39.2 °F 66% 30.00 in 10.0 mi SSW 11.5 mph 18.4 mph N/A   Clear
10:55 PM 50.0 °F - 39.2 °F 66% 30.00 in 10.0 mi SSW 12.7 mph - N/A   Clear
11:15 PM 51.8 °F - 37.4 °F 58% 30.00 in 10.0 mi SSW 10.4 mph 16.1 mph N/A   Clear
11:35 PM 51.8 °F - 37.4 °F 58% 30.00 in 10.0 mi SSW 11.5 mph 16.1 mph N/A   Clear
11:55 PM 50.0 °F - 37.4 °F 62% 30.00 in 10.0 mi SSW 9.2 mph 17.3 mph N/A   Clear